• Join FlightAware (Why Join?)
  • Login
  • US Flag GB Flag 
00:58 EDT


 

Airport Tracker/Info


-or-


 

Live Flight TrackerFlight Track Log ✈ FLG3432 ✈ 28-Apr-2013 ✈ KJFK - KDCA

Flight Track Log - Related Links

Times and Time Zones

All times are in EDT time to prevent confusion due to time zone crossing. See the FLG3432 flight status page for this flight to view local times or setup timezone preferences in your user account.

Time Position Orientation Groundspeed Altitude Reporting Facility
EDT Latitude Longitude Course Direction KTS MPH feet Rate Location/Type
09:05 40.6167 -73.8000 229° Southwest 154 177 1,500  Level New York TRACON
09:06 40.5667 -73.8333 207° Southwest 202 232 3,400 2,220 Climbing New York TRACON
09:07 40.5167 -73.8667 207° Southwest 259 298 5,800 2,580 Climbing New York TRACON
09:08 40.3743 -74.1870 233° Southwest  Level FlightAware Approximate
09:08 40.4667 -73.9333 225° Southwest 278 320 8,600  Level New York TRACON
09:09 40.3079 -74.2981 232° Southwest  Level FlightAware Approximate
09:10 40.2451 -74.4073 229° Southwest  Level FlightAware Approximate
09:10 40.3631 -74.1567 239° Southwest 321 369 13,400  Level New York Center
09:11 40.3369 -74.2617 252° West 339 390 15,700 1,860 Climbing New York Center
09:12 40.3097 -74.4047 256° West 358 412 17,100 1,200 Climbing New York Center
09:13 40.2825 -74.5444 256° West 391 450 18,100 1,260 Climbing New York Center
09:14 40.2589 -74.6903 258° West 402 463 19,700 900 Climbing New York Center
09:15 40.2311 -74.8328 256° West 412 474 20,000 120 Climbing New York Center
09:16 40.2053 -74.9753 257° West 417 480 20,000  Level New York Center
09:17 40.1814 -75.1150 257° West 407 468 20,000  Level New York Center
09:18 40.1578 -75.2467 257° West 412 474 20,000  Level New York Center
09:19 40.1233 -75.3856 252° West 412 474 20,000  Level New York Center
09:20 40.0458 -75.4997 228° Southwest 407 468 20,000  Level New York Center
09:21 39.9664 -75.6083 226° Southwest 413 475 20,000  Level New York Center
09:22 39.8928 -75.7250 231° Southwest 418 481 20,000 -360 Level New York Center
09:23 39.8169 -75.8411 230° Southwest 418 481 19,300 -1,020 Descending New York Center
09:24 39.7411 -75.9544 229° Southwest 404 465 18,100 -1,380 Descending New York Center
09:25 39.6806 -76.0525 231° Southwest 393 452 16,600 -1,500 Descending New York Center
09:26 39.6039 -76.1736 231° Southwest 399 459 15,100 -1,260 Descending New York Center
09:27 39.5167 -76.3000 228° Southwest 366 421 13,700 -1,380 Descending Potomac TRACON
09:28 39.4667 -76.4000 237° Southwest 355 409 12,100 -900 Descending Potomac TRACON
09:29 39.3833 -76.4833 218° Southwest 368 423 12,000 -600 Descending Potomac TRACON
09:30 39.3000 -76.5500 212° Southwest 363 418 11,000 -1,020 Descending Potomac TRACON
09:31 39.2167 -76.6167 212° Southwest 343 395 10,000 -540 Descending Potomac TRACON
09:32 39.1500 -76.7167 229° Southwest 355 409 10,000  Level Potomac TRACON
09:33 39.1167 -76.8167 247° West 345 397 10,000  Level Potomac TRACON
09:34 39.1000 -76.9333 260° West 329 379 10,000 -360 Level Potomac TRACON
09:35 39.0667 -77.0167 243° Southwest 277 319 9,400 -1,260 Descending Potomac TRACON
09:36 39.0833 -77.1000 284° West 279 321 7,800 -1,800 Descending Potomac TRACON
09:37 39.0833 -77.2000 270° West 273 314 6,000 -1,260 Descending Potomac TRACON
09:38 39.0667 -77.2667 252° West 241 277 5,400 -780 Descending Potomac TRACON
09:39 39.0167 -77.2500 165° South 186 214 4,600 -1,020 Descending Potomac TRACON
09:40 39.0000 -77.2000 113° Southeast 149 171 3,400 -840 Descending Potomac TRACON
09:41 38.9833 -77.1667 123° Southeast 140 161 3,000 -240 Descending Potomac TRACON
09:42 38.9500 -77.1333 142° Southeast 137 158 3,000 -360 Level Potomac TRACON
09:43 38.9333 -77.1167 142° Southeast 123 142 2,400 -600 Descending Potomac TRACON